• Join FlightAware (Why Join?)
  • Login
  • US Flag GB Flag 
02:51 EDT


 

Airport Tracker/Info


-or-


 

Live Flight TrackerFlight Track Log ✈ DAL6055 ✈ 18-Apr-2013 ✈ KDTW - KSDF

Flight Track Log - Related Links

Times and Time Zones

All times are in EDT time to prevent confusion due to time zone crossing. See the DAL6055 flight status page for this flight to view local times or setup timezone preferences in your user account.

Time Position Orientation Groundspeed Altitude Reporting Facility
EDT Latitude Longitude Course Direction KTS MPH feet Rate Location/Type
10:04 42.2036 -83.3556 180° South 144 166 1,400  Level Cleveland Center
10:05 42.1556 -83.3589 183° South 176 203 3,700 1,980 Climbing Cleveland Center
10:06 42.0972 -83.3675 186° South 213 245 5,900 2,100 Climbing Cleveland Center
10:07 42.0325 -83.3703 182° South 232 267 8,200 1,980 Climbing Cleveland Center
10:08 41.9867 -83.3683 178° South 262 302 9,500 1,500 Climbing Cleveland Center
10:09 41.7127 -83.6659 180° South  Level Estimated
10:09 41.9139 -83.3625 177° South 257 296 10,900  Level Cleveland Center
10:10 41.8264 -83.3558 177° South 272 313 12,700 1,680 Climbing Cleveland Center
10:11 41.7411 -83.3494 177° South 293 337 14,300 1,500 Climbing Cleveland Center
10:12 41.6558 -83.3431 177° South 309 356 15,700 1,380 Climbing Cleveland Center
10:13 41.5683 -83.3392 178° South 309 356 17,100 1,500 Climbing Cleveland Center
10:14 41.4822 -83.3633 192° South 314 361 18,700 1,500 Climbing Cleveland Center
10:15 41.4019 -83.4042 201° Southwest 314 361 20,200 1,500 Climbing Cleveland Center
10:16 41.3194 -83.4558 205° Southwest 321 369 21,700 1,440 Climbing Cleveland Center
10:17 41.2367 -83.5047 204° Southwest 327 376 23,100 1,380 Climbing Cleveland Center
10:18 41.1522 -83.5533 203° Southwest 327 376 24,500 840 Climbing Cleveland Center
10:20 40.9475 -83.6689 203° Southwest 347 399 26,000 420 Climbing Indianapolis Center
10:21 40.8564 -83.7203 203° Southwest 353 406 26,000  Level Indianapolis Center
10:22 40.7658 -83.7717 203° Southwest 352 405 26,000  Level Indianapolis Center
10:23 40.6756 -83.8242 204° Southwest 351 404 26,000  Level Indianapolis Center
10:24 40.5833 -83.8761 203° Southwest 357 411 26,000  Level Indianapolis Center
10:25 40.4922 -83.9289 204° Southwest 355 409 26,000  Level Indianapolis Center
10:26 40.4006 -83.9781 202° Southwest 354 407 26,000  Level Indianapolis Center
10:27 40.2933 -84.0394 204° Southwest 357 411 26,000  Level Indianapolis Center
10:28 40.2006 -84.0881 202° Southwest 357 411 26,000  Level Indianapolis Center
10:29 40.1072 -84.1378 202° Southwest 361 415 26,000  Level Indianapolis Center
10:30 40.0136 -84.1875 202° Southwest 361 415 26,000  Level Indianapolis Center
10:31 39.9200 -84.2372 202° Southwest 361 415 26,000 -60 Level Indianapolis Center
10:32 39.8250 -84.2861 202° Southwest 365 420 25,900  Descending Indianapolis Center
10:33 39.7311 -84.3350 202° Southwest 363 418 26,000  Climbing Indianapolis Center
10:34 39.6350 -84.3844 202° Southwest 368 423 26,000 -240 Level Indianapolis Center
10:35 39.5242 -84.4428 202° Southwest 366 421 25,600 -720 Descending Indianapolis Center
10:36 39.4256 -84.4928 201° Southwest 376 433 24,600 -900 Descending Indianapolis Center
10:37 39.3272 -84.5439 202° Southwest 377 434 23,800 -1,320 Descending Indianapolis Center
10:38 39.2281 -84.5950 202° Southwest 379 436 22,000 -1,860 Descending Indianapolis Center
10:39 39.1294 -84.6450 201° Southwest 378 435 20,000 -1,980 Descending Indianapolis Center
10:41 39.0356 -84.6947 202° Southwest 365 420 18,000 -1,800 Descending Indianapolis Center
10:42 38.9561 -84.7617 213° Southwest 340 391 16,400 -1,800 Descending Indianapolis Center
10:42 38.9167 -84.8000 217° Southwest 329 379 15,500 -1,980 Descending Cincinnati TRACON
10:43 38.8708 -84.8439 217° Southwest 335 386 14,400 -1,560 Descending Indianapolis Center
10:44 38.7956 -84.9158 217° Southwest 330 380 13,000 -1,140 Descending Indianapolis Center
10:45 38.7272 -84.9817 217° Southwest 310 357 12,100 -540 Descending Indianapolis Center
10:46 38.6594 -85.0472 217° Southwest 304 350 12,000 -60 Descending Indianapolis Center
10:47 38.5961 -85.1081 217° Southwest 297 342 12,000 -540 Level Indianapolis Center
10:48 38.5286 -85.1733 217° Southwest 302 348 10,900 -1,200 Descending Indianapolis Center
10:49 38.4683 -85.2306 217° Southwest 257 296 9,600 -1,500 Descending Indianapolis Center
10:49 38.4425 -85.2542 216° Southwest 237 273 8,700 -1,920 Descending FAA TRACON SMA TRACON (SMA)
10:50 38.4231 -85.2739 218° Southwest 230 265 8,100 -1,740 Descending FAA TRACON SMA TRACON (SMA)
10:50 38.4081 -85.2886 218° Southwest 226 260 7,600 -1,440 Descending FAA TRACON SMA TRACON (SMA)
10:50 38.3922 -85.3025 215° Southwest 224 258 7,200 -1,260 Descending FAA TRACON SMA TRACON (SMA)
10:50 38.3769 -85.3172 217° Southwest 222 255 6,800 -1,200 Descending FAA TRACON SMA TRACON (SMA)
10:51 38.3581 -85.3350 216° Southwest 219 252 6,400 -900 Descending FAA TRACON SMA TRACON (SMA)
10:51 38.3433 -85.3483 215° Southwest 214 246 6,200 -600 Descending FAA TRACON SMA TRACON (SMA)
10:52 38.3292 -85.3628 219° Southwest 214 246 6,000 -480 Descending FAA TRACON SMA TRACON (SMA)
10:52 38.3106 -85.3808 217° Southwest 214 246 5,900 -180 Descending FAA TRACON SMA TRACON (SMA)
10:52 38.2961 -85.3947 217° Southwest 213 245 5,900  Level FAA TRACON SMA TRACON (SMA)
10:53 38.2817 -85.4069 214° Southwest 206 237 5,900  Level FAA TRACON SMA TRACON (SMA)
10:53 38.2681 -85.4206 218° Southwest 203 234 5,900  Level FAA TRACON SMA TRACON (SMA)
10:53 38.2506 -85.4367 216° Southwest 199 229 5,900  Level FAA TRACON SMA TRACON (SMA)
10:53 38.2397 -85.4528 229° Southwest 202 232 5,900  Level FAA TRACON SMA TRACON (SMA)
10:54 38.2372 -85.4806 263° West 207 238 5,900  Level FAA TRACON SMA TRACON (SMA)
10:54 38.2353 -85.5028 264° West 205 236 5,900  Level FAA TRACON SMA TRACON (SMA)
10:54 38.2339 -85.5247 265° West 203 234 5,900  Level FAA TRACON SMA TRACON (SMA)
10:55 38.2319 -85.5528 265° West 205 236 5,900  Level FAA TRACON SMA TRACON (SMA)
10:55 38.2308 -85.5761 267° West 211 243 5,900  Level FAA TRACON SMA TRACON (SMA)
10:56 38.2289 -85.5994 264° West 215 247 5,900  Level FAA TRACON SMA TRACON (SMA)
10:56 38.2283 -85.6228 268° West 215 247 5,900  Level FAA TRACON SMA TRACON (SMA)
10:56 38.2411 -85.6494 301° West 243 280 5,900  Level FAA TRACON SMA TRACON (SMA)
10:57 38.2625 -85.6597 339° North 268 308 5,900  Level FAA TRACON SMA TRACON (SMA)
10:57 38.2919 -85.6647 352° North 275 316 5,900  Level FAA TRACON SMA TRACON (SMA)
10:57 38.3150 -85.6686 352° North 274 315 5,900  Level FAA TRACON SMA TRACON (SMA)
10:58 38.3381 -85.6722 353° North 270 311 5,900 -480 Level FAA TRACON SMA TRACON (SMA)
10:58 38.3608 -85.6764 352° North 268 308 5,600 -1,200 Descending FAA TRACON SMA TRACON (SMA)
10:58 38.3886 -85.6825 350° North 265 305 5,100 -1,200 Descending FAA TRACON SMA TRACON (SMA)
10:58 38.4042 -85.6986 321° Northwest 253 291 4,800 -900 Descending FAA TRACON SMA TRACON (SMA)
10:59 38.4069 -85.7200 279° West 232 267 4,500 -840 Descending FAA TRACON SMA TRACON (SMA)
10:59 38.4064 -85.7503 269° West 189 217 4,200 -840 Descending FAA TRACON SMA TRACON (SMA)
11:00 38.4064 -85.7653 270° West 183 211 4,000 -540 Descending FAA TRACON SMA TRACON (SMA)
11:00 38.4039 -85.7847 261° West 185 213 3,900 -120 Descending FAA TRACON SMA TRACON (SMA)
11:00 38.3781 -85.8006 206° Southwest 149 171 3,900  Level FAA TRACON SMA TRACON (SMA)
11:01 38.3636 -85.8044 192° South 138 159 3,900 -180 Level FAA TRACON SMA TRACON (SMA)
11:01 38.3519 -85.8042 179° South 139 160 3,800 -480 Descending FAA TRACON SMA TRACON (SMA)
11:01 38.3400 -85.7997 164° South 141 162 3,600 -780 Descending FAA TRACON SMA TRACON (SMA)
11:02 38.3247 -85.7939 163° South 147 169 3,300 -900 Descending FAA TRACON SMA TRACON (SMA)
11:02 38.3128 -85.7906 168° South 145 167 3,000 -780 Descending FAA TRACON SMA TRACON (SMA)
11:02 38.3006 -85.7864 165° South 146 168 2,800 -780 Descending FAA TRACON SMA TRACON (SMA)
11:03 38.2844 -85.7811 166° South 153 176 2,500 -900 Descending FAA TRACON SMA TRACON (SMA)
11:03 38.2733 -85.7775 166° South 140 161 2,200 -960 Descending FAA TRACON SMA TRACON (SMA)